Find Starlink 30243

NORAD ID: 57648 Int'l Des: 2023-122 Owner: SPXS Country: US Constellation: starlink operational
LEOCIRCULAR

現在のビュー

3D地球を読み込み中...

About Starlink 30243

Starlink 30243 (NORAD 57648) is a starlink constellation satellite (v2 mini) launched Aug 17, 2023 by SPXS of US. It operates in LEO, CIRCULAR orbit with a mass of 730.00 kg.

Starlink 30243について

説明を読み込み中...

次回通過

Passes for default location (London). Set your location on the main map for personalized predictions.

高度履歴

Loading altitude history...

軌道要素

1 57648U 23122S 26164.00969651 -.00008249 00000-0 -29007-3 0 9991
2 57648 42.9982 274.2945 0002504 269.5706 90.4859 15.27630142156788
Epoch: Jun 13, 2026 • Age: 14 hours

現在のステータス

高度 494.5 km
速度 7.62 km/s
衛星直下点 -43.02°S, 64.37°E
打ち上げ日 Aug 17, 2023
運用期間 2.8 years
タイプ internet

技術仕様

分類 Payload
質量 730.00 kg
乾燥質量 700.00 kg
総質量 730.00 kg
長さ 0.30 m
直径 4.10 m
スパン 29.00 m
形状 Box + pan
製造者 SPXS
バスタイプ Starlink V2M
フェーズステータス In Orbit
所有者/国 SPXS/US

Most Searched